Showing default

GLOBALSTAR M001, 25162

Orbit data source: Space-Track

GLOBALSTAR M001, 25162 is a payload satellite owned by Globalstar (US) in LEO that was launched on Sat, 14 Feb 1998 UTC via a DELTA 7420-10C launch vehicle from the Air Force Eastern Test Range (AFETR). Payload-class satellites include a variety of spacecraft equipped with specific instruments for various scientific and technological missions. These include communications satellites like Starlink; space stations such as the ISS; scientific satellites like the Hubble; Earth observation satellites from companies like Planet Labs, Umbra, and HawkEye 360; GPS; miniature CubeSats for education and research; and military/defense satellites.

Loading next visibility...
Identifier
25162, 1998-008A
Orbit
LEO
Country
Flag of UnknownUnknown / GLOB
Related business
Manufacturer
SS/Loral
Mission
Non-operational Commercial Communications
Bus & Motor
LS-400, Unknown motor
Mass
450 kg wet, 380 kg dry
Launch date (UTC)
1998-02-14 (28 years ago)
Launch vehicle
DELTA 7420-10C
Launch site
Air Force Eastern Test Range (AFETR)
Object type
Payload
Rocket body
Debris
Shape & HBR
Box + 2 Pan, 6.0 m
Radar Cross Section
5.587 m², Large (>1 m²)

Expand to show TLE details & history
Last TLE update: 1 day ago

TLE from 1 day ago
0 GLOBALSTAR M001
1 25162U 98008A   25260.79475206 -.00000065  00000-0  23968-3 0  9999
2 25162  52.0032  63.6782 0002322  90.9005  17.9391 12.38217517255182
Epoch: 2025-09-17T19:04Z
TLE epoch observation values (Epoch: 2025-09-17T19:04:26.577Z)
Latitude
48.35868°
Longitude
-100.36219°
Altitude
1,517.88 km
Speed
7.112 km/s
True Right ascension
12h 10m 51s
True Declination
48° 12' 16"
Sunlit
Object was in daylight at epoch
Visualization orbit readout
Latitude
Unknown
Longitude
Unknown
Altitude
Unknown
Speed
Unknown
Apparent Right ascension
Unknown
Apparent Declination
Unknown
Sunlit
N/A
Visualization observer readout
Local Sidereal Time
16:37:36
Azimuth
Unknown
Elevation
Unknown
Doppler factor
Unknown
Orbital elements
Apogee altitude
1,516.388 km
Perigee altitude
1,512.723 km
Semi-major axis
7,892.692 km
Eccentricity
0.00023
Inclination
52.0032°
RAAN
63.6782°
Arg. of periapsis
90.9005°
True anomaly
17.9473°
Mean anomaly
17.9391°
Eccentric anomaly
17.9432°
Mean motion
3.09532 °/min
Orbital period
116.3 mins
BSTAR
0.00023968
Loading maneuver chart data...
Computing Atmospheric mass density...
Loading historical data...
Loading historical data...
Loading historical data...
Loading historical data...
Loading historical data...
Loading historical data...
Loading historical data...

Documentation

Showing up to 5 results
|